sat.trackr.live / text

‹ back to catalog

STARLINK-35960

NORAD 66531 · 2025-265R

PAYLOAD ACTIVE UNKNOWN

§ Identity

Operator
Country
US
Launch date
2025-11-19
Launch site
AFETR
Launch vehicle
Mass (kg)
RCS (m²)

Purposes: comms

External: N2YO · Heavens-Above · Gunter

§ Orbital elements

Epoch: 2026-05-24T15:28:43.425984Z

Period
94.27 min
Inclination
43.0000°
Eccentricity
0.0001776
Mean motion
15.27578698 rev/d
Perigee alt
481.8 km
Apogee alt
484.3 km
Semi-major
6,861.2 km
B*
2.3563e-4
RAAN
208.6508°
Arg perigee
246.9610°
Mean anomaly
113.1054°
Rev number
2,873

§ Raw data

STARLINK-359601 66531U 25265R   26144.64494706  .00006227  00000+0  23563-3 0  99962 66531  43.0000 208.6508 0001776 246.9610 113.1054 15.27578698 28731

JSON: /api/v1/satellites/66531 · /tle

For live sub-satellite position, see the globe view (requires WebGL).

§ Visibility from observer

Set your observer location to see the next 7 days of passes ≥ 10°. The values pass through the URL so the page stays shareable.

No JS? Fill the form by hand. The geolocation button needs JavaScript.